EN

Hourly Weather Ladzice

Today, 3 August, Tuesday

Time Temperature Precipitation Wind Pressure Humidity
00:00 +13°C° 0 mm 3 mps 740 mmHg 85%
01:00 +13°C° 0 mm 3 mps 740 mmHg 87%
02:00 +13°C° 0 mm 3 mps 740 mmHg 86%
03:00 +13°C° 0 mm 3 mps 740 mmHg 85%
04:00 +13°C° 0 mm 2 mps 740 mmHg 84%
05:00 +15°C° 0 mm 2 mps 741 mmHg 80%
06:00 +16°C° 0 mm 3 mps 741 mmHg 75%
07:00 +18°C° 0 mm 3 mps 741 mmHg 70%
08:00 +19°C° 0 mm 3 mps 741 mmHg 63%
09:00 +20°C° 0 mm 3 mps 741 mmHg 57%
10:00 +22°C° 0 mm 3 mps 741 mmHg 50%
11:00 +23°C° 0.3 mm 2 mps 741 mmHg 50%
12:00 +23°C° 0.3 mm 2 mps 741 mmHg 50%
13:00 +24°C° 0.3 mm 2 mps 741 mmHg 50%
14:00 +23°C° 0 mm 2 mps 740 mmHg 53%
15:00 +23°C° 0 mm 1 mps 740 mmHg 56%
16:00 +23°C° 0 mm 1 mps 740 mmHg 58%
17:00 +22°C° 0 mm 1 mps 740 mmHg 60%
18:00 +22°C° 0 mm 1 mps 740 mmHg 62%
19:00 +21°C° 0 mm 1 mps 740 mmHg 63%
20:00 +20°C° 0 mm 1 mps 740 mmHg 65%
21:00 +20°C° 0 mm 1 mps 740 mmHg 67%
22:00 +19°C° 0 mm 1 mps 740 mmHg 69%
23:00 +18°C° 0.2 mm 1 mps 740 mmHg 73%

Tomorrow, 4 August, Wednesday

Time Temperature Precipitation Wind Pressure Humidity
00:00 +18°C° 0.2 mm 1 mps 740 mmHg 77%
01:00 +16°C° 0.2 mm 1 mps 740 mmHg 81%
02:00 +16°C° 0 mm 1 mps 740 mmHg 81%
03:00 +16°C° 0 mm 1 mps 740 mmHg 82%
04:00 +16°C° 0 mm 1 mps 739 mmHg 82%
05:00 +16°C° 0.1 mm 2 mps 740 mmHg 82%
06:00 +17°C° 0.1 mm 2 mps 740 mmHg 82%
07:00 +17°C° 0.1 mm 2 mps 740 mmHg 81%
08:00 +17°C° 0.6 mm 2 mps 740 mmHg 85%
09:00 +16°C° 0.6 mm 3 mps 740 mmHg 89%
10:00 +16°C° 0.6 mm 3 mps 740 mmHg 92%
11:00 +16°C° 0.2 mm 2 mps 740 mmHg 89%
12:00 +17°C° 0.2 mm 2 mps 740 mmHg 86%
13:00 +18°C° 0.2 mm 1 mps 740 mmHg 84%
14:00 +19°C° 0 mm 1 mps 740 mmHg 79%
15:00 +20°C° 0 mm 1 mps 740 mmHg 74%
16:00 +19°C° 0 mm 2 mps 740 mmHg 70%
17:00 +19°C° 0 mm 2 mps 740 mmHg 74%
18:00 +18°C° 0 mm 2 mps 740 mmHg 78%
19:00 +17°C° 0 mm 2 mps 740 mmHg 82%
20:00 +16°C° 0 mm 2 mps 740 mmHg 85%
21:00 +16°C° 0 mm 2 mps 740 mmHg 89%
22:00 +15°C° 0 mm 2 mps 740 mmHg 92%
23:00 +15°C° 0 mm 2 mps 740 mmHg 93%

Day after tomorrow, 5 August, Thursday

Time Temperature Precipitation Wind Pressure Humidity
00:00 +14°C° 0 mm 2 mps 739 mmHg 95%
01:00 +14°C° 0 mm 2 mps 739 mmHg 96%
02:00 +14°C° 0 mm 2 mps 739 mmHg 96%
03:00 +14°C° 0 mm 2 mps 739 mmHg 96%
04:00 +14°C° 0 mm 2 mps 739 mmHg 96%
05:00 +14°C° 0.1 mm 2 mps 739 mmHg 93%
06:00 +14°C° 0.1 mm 3 mps 739 mmHg 90%
07:00 +16°C° 0.1 mm 3 mps 738 mmHg 86%
08:00 +16°C° 0.2 mm 3 mps 738 mmHg 84%
09:00 +17°C° 0.2 mm 3 mps 738 mmHg 83%
10:00 +17°C° 0.2 mm 2 mps 738 mmHg 81%
11:00 +17°C° 0.2 mm 3 mps 738 mmHg 83%
12:00 +17°C° 0.2 mm 3 mps 738 mmHg 85%
13:00 +16°C° 0.2 mm 3 mps 738 mmHg 88%
14:00 +17°C° 0 mm 3 mps 737 mmHg 86%
15:00 +17°C° 0 mm 3 mps 737 mmHg 84%
16:00 +18°C° 0 mm 3 mps 737 mmHg 82%
17:00 +17°C° 0.1 mm 3 mps 736 mmHg 85%
18:00 +17°C° 0.1 mm 3 mps 735 mmHg 87%
19:00 +16°C° 0.1 mm 3 mps 735 mmHg 90%
20:00 +16°C° 0.1 mm 3 mps 735 mmHg 91%
21:00 +16°C° 0.1 mm 3 mps 734 mmHg 92%
22:00 +16°C° 0.1 mm 2 mps 734 mmHg 92%
23:00 +16°C° 0.4 mm 3 mps 734 mmHg 93%

6 August, Friday

Time Temperature Precipitation Wind Pressure Humidity
00:00 +16°C° 0.4 mm 3 mps 734 mmHg 93%
01:00 +16°C° 0.4 mm 3 mps 734 mmHg 94%
02:00 +15°C° 0.2 mm 4 mps 733 mmHg 94%
03:00 +15°C° 0.2 mm 4 mps 733 mmHg 95%
04:00 +14°C° 0.2 mm 4 mps 733 mmHg 95%
05:00 +14°C° 0.3 mm 4 mps 733 mmHg 95%
06:00 +14°C° 0.3 mm 4 mps 733 mmHg 95%
07:00 +15°C° 0.3 mm 4 mps 734 mmHg 95%
08:00 +15°C° 0.1 mm 4 mps 734 mmHg 93%
09:00 +15°C° 0.1 mm 4 mps 734 mmHg 91%
10:00 +16°C° 0.1 mm 5 mps 735 mmHg 88%
11:00 +17°C° 0.2 mm 5 mps 735 mmHg 85%
12:00 +17°C° 0.2 mm 5 mps 735 mmHg 82%
13:00 +19°C° 0.2 mm 5 mps 735 mmHg 79%
14:00 +19°C° 0.2 mm 4 mps 735 mmHg 77%
15:00 +19°C° 0.2 mm 4 mps 735 mmHg 75%
16:00 +20°C° 0.2 mm 4 mps 735 mmHg 73%
17:00 +19°C° 0.1 mm 3 mps 736 mmHg 75%
18:00 +18°C° 0.1 mm 2 mps 736 mmHg 78%
19:00 +18°C° 0.1 mm 2 mps 736 mmHg 81%
20:00 +18°C° 0 mm 1 mps 736 mmHg 84%
21:00 +16°C° 0 mm 1 mps 736 mmHg 86%
22:00 +16°C° 0 mm 1 mps 736 mmHg 88%
23:00 +15°C° 0 mm 2 mps 737 mmHg 90%

7 August, Saturday

Time Temperature Precipitation Wind Pressure Humidity
00:00 +15°C° 0 mm 2 mps 737 mmHg 91%
01:00 +15°C° 0 mm 2 mps 737 mmHg 92%
02:00 +15°C° 0 mm 2 mps 737 mmHg 93%
03:00 +14°C° 0 mm 2 mps 737 mmHg 93%
04:00 +14°C° 0 mm 2 mps 737 mmHg 94%
05:00 +16°C° 0 mm 2 mps 737 mmHg 88%
06:00 +17°C° 0 mm 2 mps 738 mmHg 82%
07:00 +18°C° 0 mm 2 mps 738 mmHg 76%
08:00 +20°C° 0 mm 3 mps 738 mmHg 69%
09:00 +22°C° 0 mm 3 mps 738 mmHg 61%
10:00 +25°C° 0 mm 3 mps 738 mmHg 54%
11:00 +26°C° 0 mm 3 mps 738 mmHg 51%
12:00 +27°C° 0 mm 3 mps 738 mmHg 47%
13:00 +28°C° 0 mm 3 mps 738 mmHg 44%
14:00 +28°C° 0 mm 3 mps 737 mmHg 43%
15:00 +28°C° 0 mm 3 mps 737 mmHg 43%
16:00 +28°C° 0 mm 3 mps 737 mmHg 43%
17:00 +27°C° 0 mm 3 mps 737 mmHg 49%
18:00 +25°C° 0 mm 3 mps 737 mmHg 55%
19:00 +24°C° 0 mm 2 mps 737 mmHg 60%
20:00 +22°C° 0 mm 3 mps 737 mmHg 64%
21:00 +21°C° 0 mm 4 mps 737 mmHg 67%
22:00 +21°C° 0 mm 4 mps 738 mmHg 70%
23:00 +20°C° 0 mm 5 mps 737 mmHg 69%

8 August, Sunday

Time Temperature Precipitation Wind Pressure Humidity
00:00 +20°C° 0 mm 5 mps 737 mmHg 69%
01:00 +20°C° 0 mm 5 mps 737 mmHg 69%
02:00 +20°C° 0 mm 5 mps 736 mmHg 67%
03:00 +20°C° 0 mm 5 mps 736 mmHg 66%
04:00 +20°C° 0 mm 5 mps 736 mmHg 65%
05:00 +20°C° 0 mm 5 mps 736 mmHg 68%
06:00 +20°C° 0 mm 5 mps 737 mmHg 71%
07:00 +20°C° 0 mm 5 mps 737 mmHg 74%
08:00 +20°C° 0.7 mm 5 mps 738 mmHg 78%
09:00 +20°C° 0.7 mm 5 mps 739 mmHg 82%
10:00 +20°C° 0.7 mm 5 mps 740 mmHg 86%
11:00 +20°C° 0.3 mm 5 mps 740 mmHg 81%
12:00 +21°C° 0.3 mm 5 mps 741 mmHg 77%
13:00 +21°C° 0.3 mm 5 mps 741 mmHg 72%
14:00 +20°C° 0.8 mm 4 mps 741 mmHg 77%
15:00 +19°C° 0.8 mm 4 mps 742 mmHg 83%
16:00 +17°C° 0.8 mm 3 mps 742 mmHg 88%
17:00 +17°C° 0 mm 3 mps 742 mmHg 87%
18:00 +17°C° 0 mm 3 mps 743 mmHg 86%
19:00 +18°C° 0 mm 3 mps 743 mmHg 85%
20:00 +17°C° 0 mm 3 mps 743 mmHg 86%
21:00 +17°C° 0 mm 3 mps 744 mmHg 87%
22:00 +16°C° 0 mm 3 mps 744 mmHg 88%
23:00 +16°C° 0 mm 3 mps 744 mmHg 87%
Show more